(12626) Timmerman = 1999 RP130 = 1995 WL22 = 1998 KV21 = 1116 T-1 = 1997 CG5

Discovered at Palomar on 1971-03-25 by C. J. van Houten, I. van Houten-Groeneveld, and T. Gehrels.
(12626) Timmerman = 1116 T-1

Dutch poetess Petronella Johanna de Timmerman (1724-1786) was educated in astronomy and mathematics at the observatory of Jan de Munck in Middelburg. In 1769 she married the Utrecht astronomer Jan Frederik Hennert and assisted him in his work. The name was suggested by R. H. van Gent. [Ref: Minor Planet Circ. 65710]

Orbit

Orbit type: Main Belt

Note: WebGL enabled browser required.

epoch2024-03-31.0
epoch JD2460400.5
perihelion date2022-03-13.99627
perihelion JD2459652.49627
argument of perihelion (°)125.89086
ascending node (°)258.89309
inclination (°)1.66002
eccentricity0.1065686
perihelion distance (AU)2.4005912
Tisserand w.r.t. Jupiter3.4
ΔV w.r.t. Earth (km/sec)9.7
semimajor axis (AU)2.6869339
mean anomaly (°)167.38716
mean daily motion (°/day)0.22377850
aphelion distance (AU)2.973
period (years)4.4
P-vector [x]0.90756130
P-vector [y]0.37533126
P-vector [z]0.18830542
Q-vector [x]-0.41895637
Q-vector [y]0.83968918
Q-vector [z]0.34553963
absolute magnitude14.67
phase slope0.15
uncertainty0
referenceMPEC 2024-F50
observations used2135
oppositions23
arc length (days)19354
first opposition used1971
last opposition used2024
residual rms (arc-secs)0.65
perturbers coarse indicatorM-v
perturbers precise indicator003Ek
first observation date used1971-03-24.0
last observation date used2024-03-19.0
computer nameMPCLINUX
JD of orbit computation2456819.515019
perihelion JD uncertainty (days)9.2803E-05
argument of perihelion uncertainty (°)1.5965E-04
ascending node uncertainty (°)1.5836E-04
inclination uncertainty (°)4.1735E-06
eccentricity uncertainty 4.2957E-08
perihelion distance uncertainty (AU)1.1595E-07
Minimum Orbit Intersection Distances (in AU)
for orbit epoch: 2460400.5, reference: E2024-G51
Mercury2.06218
Venus1.6784
Earth1.40485
Mars0.94579
Jupiter2.45857
Saturn6.41353
Uranus15.5238
Neptune27.4178

Observations

2170 total observations over interval: 1971 03 24.38924 – 2024 03 19.513487
These data are available for download (format description).

Date (UT) J2000 RA J2000 Dec Magn Location Ref
1971 03 24.38924 12 06 42.08 -03 23 10.3   675 – Palomar Mountain MPS 6962
1971 03 25.27326 12 05 58.16 -03 18 16.3   675 – Palomar Mountain MPS 6962
1971 03 25.31562 12 05 55.96 -03 18 01.6 19.1   675 – Palomar Mountain MPS 6962
1971 03 26.26771 12 05 08.77 -03 12 46.1   675 – Palomar Mountain MPS 6962
1971 03 27.32500 12 04 15.92 -03 06 52.7   675 – Palomar Mountain MPS 6962
1971 04 02.40000 11 59 21.22 -02 33 19.4   675 – Palomar Mountain MPS 6962
1995 11 18.12274 01 18 22.17 +10 15 25.3   691 – Steward Observatory, Kitt Peak-Spacewatch MPC 26326
1995 11 18.14419 01 18 21.62 +10 15 20.8 18.5 V 691 – Steward Observatory, Kitt Peak-Spacewatch MPC 26326
1995 11 18.16558 01 18 21.06 +10 15 16.5   691 – Steward Observatory, Kitt Peak-Spacewatch MPC 26326
1995 11 23.12290 01 16 41.95 +09 59 35.4 17.8 V 691 – Steward Observatory, Kitt Peak-Spacewatch MPC 26326
1995 11 23.14398 01 16 41.54 +09 59 31.7   691 – Steward Observatory, Kitt Peak-Spacewatch MPC 26326
1995 11 23.16510 01 16 41.18 +09 59 28.1   691 – Steward Observatory, Kitt Peak-Spacewatch MPC 26326
1997 02 06.47241 09 56 43.96 +10 04 12.0 18.9 V 566 – Haleakala-NEAT/GEODSS MPC 28975
1997 02 06.48302 09 56 43.30 +10 04 15.0 18.7 V 566 – Haleakala-NEAT/GEODSS MPC 28975
1997 02 06.49143 09 56 42.85 +10 04 17.1 18.7 V 566 – Haleakala-NEAT/GEODSS MPC 28975
1997 02 07.48091 09 55 50.61 +10 08 31.3 18.9 V 566 – Haleakala-NEAT/GEODSS MPC 28975
1997 02 07.48927 09 55 50.16 +10 08 33.5 18.8 V 566 – Haleakala-NEAT/GEODSS MPC 28975
1997 02 07.49764 09 55 49.66 +10 08 35.6 19.0 V 566 – Haleakala-NEAT/GEODSS MPC 28975
1998 05 22.17820 14 59 48.68 -18 13 29.9 18.9   704 – Lincoln Laboratory ETS, New Mexico MPS 1488
1998 05 22.19786 14 59 47.58 -18 13 27.5 18.9   704 – Lincoln Laboratory ETS, New Mexico MPS 1488
1998 05 22.21740 14 59 46.63 -18 13 22.9 18.4   704 – Lincoln Laboratory ETS, New Mexico MPS 1488
1998 05 22.23704 14 59 45.63 -18 13 16.0 18.4   704 – Lincoln Laboratory ETS, New Mexico MPS 1488
1998 05 22.25666 14 59 44.41 -18 13 11.4 18.6   704 – Lincoln Laboratory ETS, New Mexico MPS 1488
1998 05 23.18878 14 58 58.00 -18 09 24.1 18.7   704 – Lincoln Laboratory ETS, New Mexico MPS 6724
1998 05 23.20859 14 58 57.02 -18 09 21.8 18.8   704 – Lincoln Laboratory ETS, New Mexico MPS 6724
1998 05 23.22835 14 58 56.09 -18 09 14.9 18.8   704 – Lincoln Laboratory ETS, New Mexico MPS 6724
1998 05 23.24832 14 58 54.54 -18 09 10.3 18.9   704 – Lincoln Laboratory ETS, New Mexico MPS 6724
1998 05 24.16560 14 58 09.95 -18 05 28.9 19.0   704 – Lincoln Laboratory ETS, New Mexico MPS 1488
1998 05 24.18530 14 58 08.87 -18 05 23.3 19.6   704 – Lincoln Laboratory ETS, New Mexico MPS 1488
1998 05 24.20492 14 58 07.83 -18 05 19.5 19.4   704 – Lincoln Laboratory ETS, New Mexico MPS 1488
1998 05 24.24428 14 58 05.84 -18 05 10.0 19.2   704 – Lincoln Laboratory ETS, New Mexico MPS 1488
1999 08 07.35965 22 25 02.48 -07 12 43.7 18.1 R 699 – Lowell Observatory-LONEOS MPS 16313
1999 08 07.38513 22 25 01.33 -07 12 49.0   699 – Lowell Observatory-LONEOS MPS 16313
1999 08 07.41061 22 25 00.27 -07 12 53.6   699 – Lowell Observatory-LONEOS MPS 16313
1999 08 22.23889 22 13 28.22 -08 10 25.0 17.6 R 703 – Catalina Sky Survey MPS 6829
1999 08 22.24410 22 13 27.97 -08 10 27.6 17.3 R 703 – Catalina Sky Survey MPS 6829
1999 08 22.24936 22 13 27.67 -08 10 28.9 17.3 R 703 – Catalina Sky Survey MPS 6829
1999 08 22.25465 22 13 27.45 -08 10 30.4 17.4 R 703 – Catalina Sky Survey MPS 6829
1999 08 22.25992 22 13 27.13 -08 10 32.1 17.5 R 703 – Catalina Sky Survey MPS 6829
1999 08 22.26514 22 13 26.84 -08 10 33.5 17.6 R 703 – Catalina Sky Survey MPS 6829
1999 08 22.27045 22 13 26.60 -08 10 34.3 17.4 R 703 – Catalina Sky Survey MPS 6829
1999 08 22.27565 22 13 26.29 -08 10 35.9 17.2 R 703 – Catalina Sky Survey MPS 6829
1999 09 04.21553 22 02 37.02 -09 08 57.5 17.8 R 699 – Lowell Observatory-LONEOS MPS 6829
1999 09 04.24105 22 02 35.82 -09 09 03.9   699 – Lowell Observatory-LONEOS MPS 6829
1999 09 04.26659 22 02 34.56 -09 09 11.9   699 – Lowell Observatory-LONEOS MPS 6829
1999 09 07.28315 22 00 12.85 -09 22 26.5 18.0   704 – Lincoln Laboratory ETS, New Mexico MPS 6829
1999 09 07.29570 22 00 12.24 -09 22 29.7 18.6   704 – Lincoln Laboratory ETS, New Mexico MPS 6829
1999 09 07.30795 22 00 11.68 -09 22 33.1 18.5   704 – Lincoln Laboratory ETS, New Mexico MPS 6829
1999 09 07.32002 22 00 11.12 -09 22 35.9 18.4   704 – Lincoln Laboratory ETS, New Mexico MPS 6829
1999 09 07.33213 22 00 10.52 -09 22 39.2 18.5   704 – Lincoln Laboratory ETS, New Mexico MPS 6829
1999 09 09.27114 21 58 43.40 -09 30 55.6 18.0   704 – Lincoln Laboratory ETS, New Mexico MPS 6329
1999 09 09.28517 21 58 42.77 -09 30 59.1 18.9   704 – Lincoln Laboratory ETS, New Mexico MPS 6329
1999 09 09.29942 21 58 42.13 -09 31 02.2 18.5   704 – Lincoln Laboratory ETS, New Mexico MPS 6329
1999 09 09.31387 21 58 41.47 -09 31 05.1 18.6   704 – Lincoln Laboratory ETS, New Mexico MPS 6329
1999 09 09.32786 21 58 40.84 -09 31 09.8 18.8   704 – Lincoln Laboratory ETS, New Mexico MPS 6329
1999 09 13.22567 21 55 56.97 -09 47 00.1 18.0   704 – Lincoln Laboratory ETS, New Mexico MPS 6329
1999 09 13.23712 21 55 56.50 -09 47 02.4 18.8   704 – Lincoln Laboratory ETS, New Mexico MPS 6329
1999 09 13.24849 21 55 55.98 -09 47 05.8 18.9   704 – Lincoln Laboratory ETS, New Mexico MPS 6329
1999 09 13.26067 21 55 55.48 -09 47 08.4 18.5   704 – Lincoln Laboratory ETS, New Mexico MPS 6329
1999 09 13.27223 21 55 55.00 -09 47 10.9 18.6   704 – Lincoln Laboratory ETS, New Mexico MPS 6329
1999 11 08.08672 21 58 11.93 -10 15 35.3 18.8   704 – Lincoln Laboratory ETS, New Mexico MPS 7518
1999 11 08.10347 21 58 12.62 -10 15 32.2 19.1   704 – Lincoln Laboratory ETS, New Mexico MPS 7518
1999 11 08.11977 21 58 13.25 -10 15 28.8 19.3   704 – Lincoln Laboratory ETS, New Mexico MPS 7518
1999 11 08.13606 21 58 14.01 -10 15 25.7 19.2   704 – Lincoln Laboratory ETS, New Mexico MPS 7518
2000 11 23.46339 07 34 18.96 +21 02 46.9 19.5 V 691 – Steward Observatory, Kitt Peak-Spacewatch MPS 23347
2000 11 23.48566 07 34 18.71 +21 02 46.2 19.6 V 691 – Steward Observatory, Kitt Peak-Spacewatch MPS 23347
2000 11 23.50793 07 34 18.46 +21 02 45.7 19.5 V 691 – Steward Observatory, Kitt Peak-Spacewatch MPS 23347
2000 11 27.50935 07 33 25.71 +21 01 31.2 18.9 V 691 – Steward Observatory, Kitt Peak-Spacewatch MPS 23347
2000 11 27.51660 07 33 25.57 +21 01 31.1 19.0 V 691 – Steward Observatory, Kitt Peak-Spacewatch MPS 23347
2000 11 27.52374 07 33 25.44 +21 01 31.0 19.0 V 691 – Steward Observatory, Kitt Peak-Spacewatch MPS 23347
2000 12 06.40627 07 29 43.86 +21 02 23.7 18.4 V 691 – Steward Observatory, Kitt Peak-Spacewatch MPS 23347
2000 12 06.42847 07 29 43.06 +21 02 24.2 19.2 V 691 – Steward Observatory, Kitt Peak-Spacewatch MPS 23347
2000 12 06.45080 07 29 42.31 +21 02 24.7 18.4 V 691 – Steward Observatory, Kitt Peak-Spacewatch MPS 23347
2000 12 21.38991 07 18 41.81 +21 12 46.5 18.5   704 – Lincoln Laboratory ETS, New Mexico MPS 24606
2000 12 21.42044 07 18 40.11 +21 12 47.2 18.5   704 – Lincoln Laboratory ETS, New Mexico MPS 24606
2000 12 21.43568 07 18 39.32 +21 12 48.4 18.4   704 – Lincoln Laboratory ETS, New Mexico MPS 24606
2000 12 30.31820 07 10 06.84 +21 21 43.5 18.4   704 – Lincoln Laboratory ETS, New Mexico MPS 24606
2000 12 30.33341 07 10 05.97 +21 21 44.8 18.5   704 – Lincoln Laboratory ETS, New Mexico MPS 24606
2000 12 30.34880 07 10 04.94 +21 21 46.5 18.3   704 – Lincoln Laboratory ETS, New Mexico MPS 24606
2000 12 30.36400 07 10 04.05 +21 21 46.1 18.1   704 – Lincoln Laboratory ETS, New Mexico MPS 24606
2001 01 02.30076 07 07 05.46 +21 24 48.2 17.4   704 – Lincoln Laboratory ETS, New Mexico MPS 24606
2001 01 02.31611 07 07 04.44 +21 24 48.8 17.9   704 – Lincoln Laboratory ETS, New Mexico MPS 24606
